Location: Brahman Valley
(40.6513°N, 111.8855°W)
Time: 08:34:40
(UTC+00:00)

Tiros 1 despin weight - Pass Details

Date: 13 May 2021
Orbit: 594 x 641 km, 48.2° (Epoch: 22 June)

Event Time Altitude Azimuth Distance (km) Brightness Sun altitude
Rises 06:13:44 0° 283° (WNW) 2,937 ? -28.7°
Reaches altitude 10° 06:16:16 10° 293° (WNW) 2,031 ? -28.8°
Maximum altitude 06:20:29 32° 357° (N) 1,096 ? -29.1°
Enters shadow 06:24:25 12° 59° (ENE) 1,931 ? -29.3°
Drops below altitude 10° 06:24:42 10° 61° (ENE) 2,030 - -29.3°
Sets 06:27:14 0° 72° (ENE) 2,935 - -29.4°
